Weather History for Medford, OR

Change the Weather History Date:

Monday, November 21, 2011

  Actual Average Record
Temperature  
Mean Temperature 43 °F 43 °F  
Max Temperature 51 °F 50 °F 67 °F (1974)
Min Temperature 34 °F 36 °F 16 °F (1929)
Degree Days  
Heating Degree Days 22 22  
Month to date heating degree days 418 400  
Since 1 July heating degree days 688 760  
Cooling Degree Days 0 0  
Month to date cooling degree days 0 0  
Year to date cooling degree days 783 829  
Moisture  
Dew Point 37 °F    
Average Humidity 81    
Maximum Humidity 100    
Minimum Humidity 61    
Precipitation  
Precipitation 0.20 in 0.10 in 2.68 in (1998)
Month to date precipitation 1.36 1.97  
Year to date precipitation 14.85 13.81  
Snow  
Snow 0.00 in 0.00 in - ()
Month to date snowfall T 0.1  
Since 1 July snowfall T 0.1  
Snow Depth 0.00 in    
Sea Level Pressure  
Sea Level Pressure 29.97 in    
Wind  
Wind Speed 4 mph (SE)    
Max Wind Speed 20 mph    
Max Gust Speed 24 mph    
Visibility 6 miles    
Events Fog , Rain    
T = Trace of Precipitation, MM = Missing Value Source: NWS Daily Summary

Daily Weather History Graph

Daily Weather History Graph

Search for Another Location

Airport:

Trip Planner

Search our weather history database for the weather conditions in past years. The results will help you decide how hot, cold, wet, or windy it might be!

Date:

Astronomy

Nov. 21, 2011 Rise Set
Actual Time 7:09 AM PST 4:44 PM PST
Civil Twilight 6:38 AM PST 5:15 PM PST
Nautical Twilight 6:04 AM PST 5:49 PM PST
Astronomical Twilight 5:30 AM PST 6:23 PM PST
Moon 2:50 AM PST (11/21) 2:13 PM PST (11/21)
Length of Visible Light 10h 36m
Length of Day
9h 35m
Waning Crescent, 16% of the Moon is Illuminated
Nov 21
Waning Crescent
Nov 24
New
Dec 2
First Quarter
Dec 10
Full
Dec 17
Last Quarter

Hourly Weather History & Observations

Time (PST) Temp. Windchill Dew Point Humidity Pressure Visibility Wind Dir Wind Speed Gust Speed Precip Events Conditions
12:53 AM 34.0 °F 28.8 °F 32.0 °F 92% 29.94 in 6.0 mi ENE 5.8 mph - N/A   Clear
1:02 AM 35.6 °F - 33.8 °F 93% 29.94 in 7.0 mi Calm Calm - N/A   Partly Cloudy
1:20 AM 35.6 °F - 33.8 °F 93% 29.94 in 5.0 mi Calm Calm - N/A   Mostly Cloudy
1:41 AM 35.6 °F - 33.8 °F 93% 29.95 in 1.8 mi Calm Calm - N/A   Overcast
1:53 AM 36.0 °F - 35.1 °F 97% 29.97 in 2.0 mi Calm Calm - N/A   Overcast
2:05 AM 35.6 °F - 35.6 °F 100% 29.95 in 1.2 mi Calm Calm - N/A   Overcast
2:38 AM 35.6 °F 32.8 °F 35.6 °F 100% 29.95 in 0.5 mi WSW 3.5 mph - N/A Fog Fog
2:53 AM 36.0 °F 33.3 °F 35.1 °F 97% 29.98 in 0.5 mi West 3.5 mph - N/A Fog Fog
3:34 AM 35.6 °F - 35.6 °F 100% 29.96 in 1.2 mi Calm Calm - N/A   Overcast
3:46 AM 35.6 °F - 35.6 °F 100% 29.96 in 3.0 mi Calm Calm - N/A   Overcast
3:53 AM 36.0 °F - 35.1 °F 97% 29.97 in 3.0 mi Calm Calm - N/A   Overcast
4:10 AM 35.6 °F - 35.6 °F 100% 29.95 in 1.8 mi Calm Calm - N/A   Overcast
4:44 AM 35.6 °F - 35.6 °F 100% 29.96 in 0.5 mi Calm Calm - N/A Fog Fog
4:53 AM 36.0 °F - 35.1 °F 97% 29.99 in 0.5 mi Calm Calm - N/A Fog Fog
5:09 AM 35.6 °F - 35.6 °F 100% 29.97 in 0.2 mi Calm Calm - N/A Fog Fog
5:17 AM 35.6 °F 32.8 °F 33.8 °F 93% 29.97 in 0.2 mi North 3.5 mph - N/A Fog Fog
5:53 AM 35.1 °F - 34.0 °F 96% 29.99 in 0.2 mi Calm Calm - N/A Fog Fog
6:53 AM 35.1 °F - 34.0 °F 96% 29.99 in 2.0 mi Calm Calm - N/A   Overcast
7:53 AM 36.0 °F - 34.0 °F 93% 30.03 in 4.0 mi Calm Calm - 0.00 in   Overcast
8:00 AM 35.6 °F - 33.8 °F 93% 30.00 in 7.0 mi Calm Calm - N/A   Overcast
8:22 AM 35.6 °F 32.8 °F 33.8 °F 93% 30.01 in 8.0 mi North 3.5 mph - N/A   Overcast
8:53 AM 37.0 °F - 35.1 °F 93% 30.04 in 9.0 mi Calm Calm - N/A   Overcast
9:53 AM 39.9 °F - 36.0 °F 86% 30.04 in 10.0 mi Calm Calm - N/A   Overcast
10:53 AM 41.0 °F - 36.0 °F 82% 30.05 in 10.0 mi Calm Calm - N/A   Overcast
11:53 AM 44.1 °F - 37.0 °F 76% 30.01 in 10.0 mi Calm Calm - N/A   Mostly Cloudy
12:53 PM 48.0 °F - 37.9 °F 68% 29.99 in 10.0 mi Calm Calm - N/A   Mostly Cloudy
1:53 PM 50.0 °F - 37.9 °F 63% 29.98 in 10.0 mi North 5.8 mph - N/A   Mostly Cloudy
2:53 PM 48.9 °F - 41.0 °F 74% 29.98 in 7.0 mi Calm Calm - 0.00 in Rain Light Rain
3:53 PM 48.0 °F - 43.0 °F 83% 29.94 in 10.0 mi SSE 3.5 mph - 0.03 in Rain Light Rain
4:53 PM 46.9 °F - 43.0 °F 86% 29.94 in 8.0 mi NNW 3.5 mph - 0.01 in Rain Light Rain
5:53 PM 46.0 °F 44.8 °F 43.0 °F 89% 29.94 in 7.0 mi NNE 3.5 mph - 0.05 in Rain Rain
6:53 PM 45.0 °F 43.5 °F 43.0 °F 93% 29.94 in 6.0 mi North 3.5 mph - 0.05 in Rain Light Rain
7:37 PM 48.2 °F - 39.2 °F 71% 29.91 in 10.0 mi South 11.5 mph - 0.02 in Rain Light Rain
7:53 PM 48.9 °F - 39.0 °F 69% 29.92 in 10.0 mi South 11.5 mph 18.4 mph 0.03 in Rain Light Rain
8:53 PM 48.9 °F - 39.0 °F 69% 29.91 in 10.0 mi SSE 6.9 mph 19.6 mph 0.01 in   Overcast
9:53 PM 50.0 °F - 39.0 °F 66% 29.91 in 9.0 mi SSE 12.7 mph - 0.00 in Rain Light Rain
10:53 PM 48.9 °F - 39.9 °F 71% 29.90 in 10.0 mi SSE 18.4 mph 23.0 mph 0.02 in Rain Light Rain
11:53 PM 51.1 °F - 39.0 °F 63% 29.91 in 10.0 mi South 10.4 mph - 0.00 in   Overcast